Ranch 30 (Forestville-NE) CA US WWG-SONOMA current weather conditions

sailwx.info

Wind from 143 at 2 knots gusting 4

Air temperature 12.1° C
Dewpoint 8.9° C

Last reported at 2019-Dec-11 00:00 UTC.
Time now 2019-Dec-11 00:55 UTC

Location: N 38°30' W 122°53'.
View on Google Maps.

See reports from other nearby stations

  
Tides and Currents Weather Stations Pressure Air Temp Water Temp Dewpoint Dewpoint Depression Visibility Wind Speed Wind Dir Waves Ship Positions
date/time (UTC)wind fromknots sea level pressurealtimeterstation pressurevisibilityair tempwater tempwave heightnotes
2019-Dec-11 00:00 143 2 gusting 4 12.1
2019-Dec-10 23:45 163 2 gusting 5 12.2
2019-Dec-10 23:30 116 2 gusting 4 12.2
2019-Dec-10 23:15 118 3 gusting 6 12.2
2019-Dec-10 23:00 152 2 gusting 4 12.2
2019-Dec-10 22:45 166 2 gusting 4 12.3
2019-Dec-10 22:30 180 2 gusting 5 12.3
2019-Dec-10 22:15 184 4 gusting 7 12.3
2019-Dec-10 22:00 194 4 gusting 6 12.2
2019-Dec-10 21:45 162 3 gusting 6 12.5
2019-Dec-10 21:30 147 3 gusting 7 12.9
2019-Dec-10 21:15 189 2 gusting 4 12.6
2019-Dec-10 21:00 197 3 gusting 7 11.7
2019-Dec-10 20:45 176 3 gusting 7 11.6
2019-Dec-10 20:30 161 4 gusting 7 11.3
2019-Dec-10 20:15 125 3 gusting 7 11.3
2019-Dec-10 20:00 119 2 gusting 5 11.3
2019-Dec-10 19:45 145 3 gusting 6 11.2
2019-Dec-10 19:30 124 3 gusting 7 11.2
2019-Dec-10 19:15 146 2 gusting 6 11.1
2019-Dec-10 19:00 183 1 gusting 4 10.9
2019-Dec-10 18:45 180 1 gusting 4 10.7
2019-Dec-10 18:30 239 0 gusting 3 10.8
2019-Dec-10 18:15 242 1 gusting 2 10.3
2019-Dec-10 18:00 210 2 gusting 4 9.9
2019-Dec-10 17:45 146 2 gusting 4 9.7
2019-Dec-10 17:30 134 2 gusting 5 9.5
2019-Dec-10 17:15 095 2 gusting 6 9.4
2019-Dec-10 17:00 113 1 gusting 4 9.4
2019-Dec-10 16:45 120 3 gusting 6 9.3
2019-Dec-10 16:30 121 2 gusting 7 9.3
2019-Dec-10 16:15 121 2 gusting 6 9.4
2019-Dec-10 16:00 116 3 gusting 5 9.6
2019-Dec-10 15:45 114 2 gusting 5 9.7
2019-Dec-10 15:30 092 1 gusting 3 9.7
2019-Dec-10 15:15 275 1 gusting 3 9.6
2019-Dec-10 15:00 261 1 gusting 3 9.6
2019-Dec-10 14:45 238 0 gusting 0 9.6
2019-Dec-10 14:30 101 0 gusting 1 9.5
2019-Dec-10 14:15 124 1 gusting 3 9.5
2019-Dec-10 14:00 130 1 gusting 3 9.5
2019-Dec-10 13:45 136 1 gusting 2 9.6
2019-Dec-10 13:30 286 0 gusting 1 9.5
2019-Dec-10 13:15 308 0 gusting 1 9.5
2019-Dec-10 13:00 346 0 gusting 1 9.5
2019-Dec-10 12:45 295 0 gusting 2 9.5
2019-Dec-10 12:30 320 1 gusting 2 9.5
2019-Dec-10 12:15 146 0 gusting 1 9.6
2019-Dec-10 12:00 113 1 gusting 4 9.5
2019-Dec-10 11:45 123 2 gusting 4 9.6
2019-Dec-10 11:30 116 1 gusting 3 9.7
2019-Dec-10 11:15 128 2 gusting 4 9.7
2019-Dec-10 11:00 099 2 gusting 5 9.8
2019-Dec-10 10:45 088 1 gusting 4 10.0
2019-Dec-10 10:30 351 0 gusting 3 10.1
2019-Dec-10 10:15 295 1 gusting 3 10.1
2019-Dec-10 10:00 003 0 gusting 1 10.1
2019-Dec-10 09:45 070 0 gusting 0 10.1
2019-Dec-10 09:30 334 0 gusting 1 10.1
2019-Dec-10 09:15 351 0 gusting 1 10.1
2019-Dec-10 09:00 133 1 gusting 2 10.1
2019-Dec-10 08:45 116 1 gusting 3 10.1
2019-Dec-10 08:30 098 1 gusting 2 10.1
2019-Dec-10 08:15 129 1 gusting 4 10.2
2019-Dec-10 08:00 123 2 gusting 3 10.3
2019-Dec-10 07:45 220 1 gusting 3 10.4
2019-Dec-10 07:30 107 1 gusting 4 10.3
2019-Dec-10 07:15 102 0 gusting 2 10.4
2019-Dec-10 07:00 110 0 gusting 5 10.4
2019-Dec-10 06:45 094 0 gusting 4 10.3
2019-Dec-10 06:30 004 1 gusting 4 10.2
2019-Dec-10 06:15 004 0 gusting 2 10.2
2019-Dec-10 06:00 136 0 gusting 1 10.3
2019-Dec-10 05:45 339 0 gusting 2 10.2
2019-Dec-10 05:30 094 1 gusting 3 10.3
2019-Dec-10 05:15 112 1 gusting 3 10.3
2019-Dec-10 05:00 102 1 gusting 2 10.3
2019-Dec-10 04:45 106 1 gusting 2 10.3
2019-Dec-10 04:30 097 1 gusting 4 10.2
2019-Dec-10 04:15 344 0 gusting 1 10.2
2019-Dec-10 04:00 254 0 gusting 2 10.3
2019-Dec-10 03:45 291 1 gusting 4 10.2
2019-Dec-10 03:30 292 1 gusting 3 10.3
2019-Dec-10 03:15 349 1 gusting 3 10.3
2019-Dec-10 03:00 302 0 gusting 1 10.5
2019-Dec-10 02:45 290 0 gusting 1 10.5
2019-Dec-10 02:30 319 1 gusting 4 10.6
2019-Dec-10 02:15 358 1 gusting 3 10.7
2019-Dec-10 02:00 013 1 gusting 3 10.7
2019-Dec-10 01:45 011 1 gusting 3 10.8
2019-Dec-10 01:30 333 2 gusting 3 10.9
2019-Dec-10 01:15 311 0 gusting 2 11.1
2019-Dec-10 01:00 187 0 gusting 1 11.1
2019-Dec-10 00:45 005 0 gusting 1 11.1
2019-Dec-10 00:30 354 1 gusting 3 11.1
2019-Dec-10 00:15 080 0 gusting 2 11.2
2019-Dec-10 00:00 034 1 gusting 2 11.2
2019-Dec-09 23:45 110 0 gusting 2 11.2
2019-Dec-09 23:30 122 1 gusting 2 11.2
2019-Dec-09 23:15 120 1 gusting 3 11.2
2019-Dec-09 23:00 147 1 gusting 2 11.2
2019-Dec-09 22:45 165 0 gusting 2 11.0
2019-Dec-09 22:30 172 0 gusting 2 10.9
2019-Dec-09 22:15 147 0 gusting 1 10.6
2019-Dec-09 22:00 123 0 gusting 2 10.4
2019-Dec-09 21:45 102 0 gusting 2 10.3
2019-Dec-09 21:30 110 1 gusting 2 10.1
2019-Dec-09 21:15 104 2 gusting 4 10.0
2019-Dec-09 21:00 120 1 gusting 3 9.9
2019-Dec-09 20:45 113 2 gusting 3 9.7
2019-Dec-09 20:30 127 2 gusting 4 9.6
2019-Dec-09 20:15 130 2 gusting 4 9.5
2019-Dec-09 20:00 076 0 gusting 2 9.6
2019-Dec-09 19:45 236 0 gusting 2 9.3
2019-Dec-09 19:30 143 1 gusting 4 9.0
2019-Dec-09 19:15 135 2 gusting 4 8.7
2019-Dec-09 19:00 207 2 gusting 3 8.5
2019-Dec-09 18:45 200 1 gusting 3 8.2
2019-Dec-09 18:30 258 1 gusting 3 8.3
2019-Dec-09 18:15 296 1 gusting 3 8.2
2019-Dec-09 18:00 288 1 gusting 3 8.2
2019-Dec-09 17:45 267 1 gusting 3 8.0
2019-Dec-09 17:30 263 1 gusting 3 7.8
2019-Dec-09 17:15 266 2 gusting 3 7.7
2019-Dec-09 17:00 269 2 gusting 3 7.6
2019-Dec-09 16:45 274 1 gusting 3 7.4
2019-Dec-09 16:30 255 2 gusting 3 7.4
2019-Dec-09 16:15 266 2 gusting 3 7.5
2019-Dec-09 16:00 260 1 gusting 2 7.5
2019-Dec-09 15:45 254 1 gusting 2 7.4
2019-Dec-09 15:30 237 2 gusting 3 7.3
2019-Dec-09 15:15 230 1 gusting 2 7.6
2019-Dec-09 15:00 265 1 gusting 2 7.6
2019-Dec-09 14:45 241 0 gusting 1 7.6
2019-Dec-09 14:30 173 0 gusting 1 7.5
2019-Dec-09 14:15 179 0 gusting 1 7.5
2019-Dec-09 14:00 217 0 gusting 2 7.4
2019-Dec-09 13:45 185 1 gusting 2 7.5
2019-Dec-09 13:30 212 0 gusting 2 7.5
2019-Dec-09 13:15 169 0 gusting 2 7.6
2019-Dec-09 13:00 113 1 gusting 2 7.7
2019-Dec-09 12:45 087 1 gusting 2 7.8
2019-Dec-09 12:30 029 1 gusting 2 7.8
2019-Dec-09 12:15 358 1 gusting 2 7.8
2019-Dec-09 12:00 014 0 gusting 1 7.9
2019-Dec-09 11:45 357 1 gusting 4 8.2
2019-Dec-09 11:30 310 0 gusting 1 8.4
2019-Dec-09 11:15 338 0 gusting 1 8.4
2019-Dec-09 11:00 342 1 gusting 3 8.6
2019-Dec-09 10:45 267 0 gusting 2 8.8
2019-Dec-09 10:30 012 0 gusting 1 8.6
2019-Dec-09 10:15 345 1 gusting 2 8.5
2019-Dec-09 10:00 325 0 gusting 2 8.7
2019-Dec-09 09:45 001 0 gusting 1 8.7
2019-Dec-09 09:30 350 0 gusting 1 8.8
2019-Dec-09 09:15 093 0 gusting 0 8.8
2019-Dec-09 09:00 239 0 gusting 0 8.6
2019-Dec-09 08:45 8.6
2019-Dec-09 08:30 302 0 gusting 1 8.7
2019-Dec-09 08:15 313 0 gusting 2 9.0
2019-Dec-09 08:00 294 0 gusting 2 9.4
2019-Dec-09 07:45 296 0 gusting 3 9.6
2019-Dec-09 07:30 242 0 gusting 2 9.7
2019-Dec-09 07:15 208 0 gusting 2 9.7
2019-Dec-09 07:00 223 0 gusting 1 9.8
2019-Dec-09 06:45 301 0 gusting 3 9.8
2019-Dec-09 06:30 322 1 gusting 3 9.8
2019-Dec-09 06:15 317 1 gusting 3 9.8
2019-Dec-09 06:00 282 1 gusting 3 9.8
2019-Dec-09 05:45 287 0 gusting 0 9.6
2019-Dec-09 05:30 334 0 gusting 1 9.5
2019-Dec-09 05:15 344 0 gusting 1 9.7
2019-Dec-09 05:00 224 0 gusting 1 10.0
2019-Dec-09 04:45 111 0 gusting 1 10.2
2019-Dec-09 04:30 151 1 gusting 1 10.3
2019-Dec-09 04:15 328 0 gusting 2 10.3
2019-Dec-09 04:00 159 0 gusting 0 10.6
2019-Dec-09 03:45 005 0 gusting 1 10.8
2019-Dec-09 03:30 225 0 gusting 2 11.1
2019-Dec-09 03:15 330 1 gusting 2 11.2
2019-Dec-09 03:00 235 0 gusting 1 11.4
2019-Dec-09 02:45 232 1 gusting 2 11.7
2019-Dec-09 02:30 250 2 gusting 4 11.8
2019-Dec-09 02:15 262 1 gusting 3 11.8
2019-Dec-09 02:00 284 0 gusting 3 12.0
2019-Dec-09 01:45 281 0 gusting 2 12.3
2019-Dec-09 01:30 250 1 gusting 3 12.5
2019-Dec-09 01:15 301 1 gusting 4 13.0
2019-Dec-09 01:00 271 1 gusting 3 14.0
2019-Dec-09 00:45 294 0 gusting 2 15.4
2019-Dec-09 00:30 273 2 gusting 3 16.9
2019-Dec-09 00:15 257 2 gusting 5 17.8
2019-Dec-09 00:00 266 2 gusting 4 18.3